Tracking 22124 objects as of 23-Jan-2021
HD Live streaming from Space Station
objects crossing your sky now

EKRAN 4

Track EKRAN 4 now!
EKRAN 4 is classified as:


NORAD ID: 11561
Int'l Code: 1979-087A
Perigee: 35,769.3 km
Apogee: 35,820.0 km
Inclination: 10.3 °
Period: 1,436.1 minutes
Semi major axis: 42165 km
RCS: 0.1995 m2 (medium)
Launch date: October 3, 1979
Source: Commonwealth of Independent States (former USSR) (CIS)
Launch site: TYURATAM MISSILE AND SPACE COMPLEX (TTMTR)
aabbcc
Your satellite tracking list
Your tracking list is empty




NASA's NSSDC Master Catalog

Two Line Element Set (TLE):
1 11561U 79087A   21022.85936828  .00000117  00000-0  00000-0 0  9990
2 11561  10.3192 307.1319 0006012  83.3049  93.8580  1.00268518 27601
Source of the keplerian elements: AFSPC